Window Rock, AZ

3:26 AM MST on February 25, 2017 (GMT -0700)
Window Rock

Weather History for KRQE - November, 2011

Change the Weather History Date:

Wednesday, November 2, 2011

  Actual Average Record
Temperature  
Mean Temperature 37 °F -  
Max Temperature 48 °F 54 °F 75 °F (1976)
Min Temperature 24 °F 26 °F 11 °F (1951)
Degree Days  
Heating Degree Days 28    
Moisture  
Dew Point 14 °F    
Average Humidity 41    
Maximum Humidity 65    
Minimum Humidity 23    
Precipitation  
Precipitation 0.00 in - - ()
Sea Level Pressure  
Sea Level Pressure 30.21 in    
Wind  
Wind Speed 10 mph (NNW)    
Max Wind Speed 20 mph    
Max Gust Speed 30 mph    
Visibility 10 miles    
Events      
Averages and records for this station are not official NWS values.
T = Trace of Precipitation, MM = Missing Value Source: NWS Daily Summary

Daily Weather History Graph

Daily Weather History Graph

Search for Another Location

Airport or City:

Trip Planner

Search our weather history database for the weather conditions in past years. The results will help you decide how hot, cold, wet, or windy it might be!

Date:

Astronomy

Nov. 02, 2011 Rise Set
Actual Time 7:39 AM MDT 6:20 PM MDT
Civil Twilight 7:12 AM MDT 6:46 PM MDT
Nautical Twilight 6:42 AM MDT 7:16 PM MDT
Astronomical Twilight 6:12 AM MDT 7:46 PM MDT
Moon 2:00 PM MDT (11/2) 12:08 AM MDT (11/2)
Length of Visible Light 11h 34m
Length of Day
10h 41m
Waxing Crescent, 51% of the Moon is Illuminated
Nov 2
Waxing Crescent
Nov 10
Full
Nov 18
Last Quarter
Nov 24
New
Dec 2
First Quarter

Hourly Weather History & Observations

Time (MDT) Temp. Windchill Dew Point Humidity Pressure Visibility Wind Dir Wind Speed Gust Speed Precip Events Conditions
12:53 AM 39.9 °F 32.5 °F 18.0 °F 41% 29.83 in 10.0 mi West 12.7 mph 21.9 mph N/A   Clear
1:53 AM 35.1 °F 24.1 °F 15.1 °F 44% 29.91 in 10.0 mi NW 19.6 mph 29.9 mph N/A   Clear
2:53 AM 32.0 °F 21.6 °F 12.0 °F 44% 29.93 in 10.0 mi NW 15.0 mph 23.0 mph N/A   Clear
3:53 AM 30.9 °F 21.7 °F 12.0 °F 46% 29.97 in 10.0 mi NW 11.5 mph - N/A   Clear
4:53 AM 30.0 °F 19.1 °F 12.0 °F 47% 30.01 in 10.0 mi NW 15.0 mph 19.6 mph N/A   Clear
5:53 AM 28.9 °F 22.8 °F 12.0 °F 49% 30.06 in 10.0 mi NW 5.8 mph 17.3 mph N/A   Clear
7:53 AM 26.1 °F 19.4 °F 12.0 °F 55% 30.15 in 10.0 mi NNW 5.8 mph - N/A   Clear
8:53 AM 30.0 °F 25.2 °F 12.9 °F 49% 30.20 in 10.0 mi NNW 4.6 mph - N/A   Clear
9:53 AM 34.0 °F 26.6 °F 15.1 °F 46% 30.22 in 10.0 mi North 9.2 mph - N/A   Clear
10:53 AM 37.9 °F 30.5 °F 15.1 °F 39% 30.22 in 10.0 mi NNW 11.5 mph - N/A   Clear
11:53 AM 39.9 °F 33.4 °F 12.9 °F 33% 30.23 in 10.0 mi North 10.4 mph - N/A   Clear
12:53 PM 43.0 °F - 12.9 °F 30% 30.23 in 10.0 mi Calm Calm - N/A   Clear
1:53 PM 46.0 °F 43.1 °F 12.9 °F 26% 30.22 in 10.0 mi Variable 5.8 mph - N/A   Clear
2:53 PM 46.0 °F - 12.0 °F 25% 30.23 in 10.0 mi Calm Calm - N/A   Clear
3:53 PM 46.9 °F - 10.9 °F 23% 30.24 in 10.0 mi Calm Calm - N/A   Clear
4:53 PM 48.0 °F - 12.0 °F 24% 30.24 in 10.0 mi West 4.6 mph - N/A   Clear
5:53 PM 44.1 °F 40.1 °F 14.0 °F 30% 30.27 in 10.0 mi East 6.9 mph - N/A   Clear
6:53 PM 39.0 °F 32.8 °F 16.0 °F 39% 30.32 in 10.0 mi ENE 9.2 mph - N/A   Clear
7:53 PM 36.0 °F 32.1 °F 16.0 °F 44% 30.36 in 10.0 mi ENE 4.6 mph - N/A   Clear
8:53 PM 34.0 °F 31.0 °F 16.0 °F 48% 30.36 in 10.0 mi Variable 3.5 mph - N/A   Clear
9:53 PM 33.1 °F 26.9 °F 16.0 °F 50% 30.35 in 10.0 mi Variable 6.9 mph - N/A   Clear
10:53 PM 35.1 °F 30.1 °F 15.1 °F 44% 30.32 in 10.0 mi Variable 5.8 mph 19.6 mph N/A   Clear
11:53 PM 30.9 °F 26.2 °F 15.1 °F 52% 30.34 in 10.0 mi ENE 4.6 mph - N/A   Clear